This demonstration page uses our WeatherBlox Daily Observations layout. Learn more.

Left ArrowRight Arrow

53.62937, 11.41316

Hourly Observations for August 12, 2022

Temp ( °F °C ) Dew Point ( °F °C ) Humidity (%) Winds ( mph kmh ) Pressure ( in mb ) Visibility ( mi km ) Precip ( " mm )
12:20 am 00:20 Mostly Clear 61 16 55 13 82 82 E 2 4 30.21 1023 6 10 0.00 0.00
12:50 am 00:50 Clear 59 15 55 13 88 88 E 2 4 30.21 1023 6 10 0.00 0.00
1:20 am 01:20 Clear 57 14 54 12 88 88 ESE 2 4 30.21 1023 6 10 0.00 0.00
1:50 am 01:50 Clear 57 14 55 13 94 94 VRB 1 2 30.21 1023 6 10 0.00 0.00
2:20 am 02:20 Clear 57 14 55 13 94 94 E 2 4 30.21 1023 6 10 0.00 0.00
2:50 am 02:50 Clear 57 14 54 12 88 88 NE 1 2 30.21 1023 6 10 0.00 0.00
3:20 am 03:20 Clear 57 14 54 12 88 88 E 2 4 30.21 1023 6 10 0.00 0.00
3:50 am 03:50 Clear 55 13 54 12 94 94 E 2 4 30.18 1022 6 10 0.00 0.00
4:20 am 04:20 Clear 54 12 52 11 94 94 NNE 1 2 30.18 1022 6 10 0.00 0.00
4:50 am 04:50 Clear 55 13 52 11 88 88 E 2 4 30.18 1022 6 10 0.00 0.00
5:20 am 05:20 Clear 54 12 52 11 94 94 E 2 4 30.18 1022 6 10 0.00 0.00
5:50 am 05:50 Clear 55 13 52 11 88 88 E 2 4 30.18 1022 6 10 0.00 0.00
6:20 am 06:20 Mostly Sunny 55 13 54 12 94 94 VRB 1 2 30.18 1022 6 10 0.00 0.00
6:50 am 06:50 Mostly Sunny 57 14 52 11 82 82 E 1 2 30.18 1022 6 10 0.00 0.00
7:20 am 07:20 Mostly Sunny 59 15 55 13 88 88 ENE 3 6 30.18 1022 6 10 0.00 0.00
7:50 am 07:50 Mostly Sunny 63 17 55 13 77 77 ENE 3 6 30.18 1022 6 10 0.00 0.00
8:20 am 08:20 Mostly Sunny 64 18 57 14 77 77 E 6 9 30.18 1022 6 10 0.00 0.00
8:50 am 08:50 Mostly Sunny 68 20 57 14 68 68 E 6 9 30.18 1022 6 10 0.00 0.00
9:20 am 09:20 Mostly Sunny 70 21 57 14 64 64 E 3 6 30.18 1022 6 10 0.00 0.00
9:50 am 09:50 Mostly Sunny 72 22 57 14 60 60 VRB 3 6 30.18 1022 6 10 0.00 0.00
10:20 am 10:20 Mostly Sunny 73 23 57 14 57 57 VRB 3 6 30.18 1022 6 10 0.00 0.00
10:50 am 10:50 Mostly Sunny 77 25 57 14 50 50 E 5 7 30.18 1022 6 10 0.00 0.00
11:20 am 11:20 Mostly Sunny 79 26 57 14 48 48 E 5 7 30.18 1022 6 10 0.00 0.00
11:50 am 11:50 Mostly Sunny 79 26 54 12 42 42 E 7 11 30.18 1022 6 10 0.00 0.00
12:20 pm 12:20 Mostly Sunny 81 27 54 12 39 39 ENE 7 11 30.17 1022 6 10 0.00 0.00
12:50 pm 12:50 Mostly Sunny 84 29 54 12 35 35 E 6 9 30.17 1022 6 10 0.00 0.00
1:20 pm 13:20 Mostly Sunny 84 29 54 12 35 35 SE 6 9 30.15 1021 6 10 0.00 0.00
1:50 pm 13:50 Mostly Sunny 86 30 48 9 27 27 VRB 6 9 30.14 1021 6 10 0.00 0.00
2:20 pm 14:20 Mostly Sunny 84 29 55 13 37 37 NE 9 15 30.15 1021 6 10 0.00 0.00
2:50 pm 14:50 Mostly Sunny 84 29 55 13 37 37 NNE 12 19 30.15 1021 6 10 0.00 0.00
3:20 pm 15:20 Mostly Sunny 84 29 55 13 37 37 NE 12 19 30.12 1020 6 10 0.00 0.00
3:50 pm 15:50 Mostly Sunny 84 29 57 14 40 40 NNE 12 19 30.12 1020 6 10 0.00 0.00
4:20 pm 16:20 Mostly Sunny 82 28 55 13 40 40 NNE 12 19 30.12 1020 6 10 0.00 0.00
4:50 pm 16:50 Mostly Sunny 84 29 57 14 40 40 NE 13 20 30.12 1020 6 10 0.00 0.00
5:20 pm 17:20 Mostly Sunny 82 28 57 14 42 42 NNE 14 22 30.12 1020 6 10 0.00 0.00
5:50 pm 17:50 Mostly Sunny 82 28 55 13 40 40 NE 12 19 30.12 1020 6 10 0.00 0.00
6:20 pm 18:20 Mostly Sunny 82 28 54 12 37 37 NE 14 22 30.12 1020 6 10 0.00 0.00
6:50 pm 18:50 Mostly Sunny 81 27 55 13 42 42 NE 13 20 30.12 1020 6 10 0.00 0.00
7:20 pm 19:20 Mostly Sunny 79 26 55 13 45 45 ENE 12 19 30.12 1020 6 10 0.00 0.00
7:50 pm 19:50 Mostly Sunny 77 25 55 13 47 47 ENE 12 19 30.12 1020 6 10 0.00 0.00
8:20 pm 20:20 Mostly Sunny 75 24 54 12 47 47 ENE 9 15 30.12 1020 6 10 0.00 0.00
8:50 pm 20:50 Mostly Sunny 73 23 54 12 50 50 ENE 9 15 30.12 1020 6 10 0.00 0.00
9:20 pm 21:20 Mostly Clear 72 22 54 12 53 53 E 8 13 30.12 1020 6 10 0.00 0.00
9:50 pm 21:50 Mostly Clear 70 21 54 12 56 56 E 7 11 30.12 1020 6 10 0.00 0.00
10:20 pm 22:20 Clear 68 20 55 13 64 64 E 6 9 30.12 1020 6 10 0.00 0.00
10:50 pm 22:50 Clear 66 19 55 13 68 68 VRB 1 2 30.12 1020 6 10 0.00 0.00
11:20 pm 23:20 Clear 66 19 55 13 68 68 WSW 3 6 30.12 1020 6 10 0.00 0.00
11:50 pm 23:50 Clear 63 17 55 13 77 77 ENE 5 7 30.12 1020 6 10 0.00 0.00

Powered by AerisWeather